Weather in Kuytun

Russia / Irkutsk Oblast     54°19′25″N   101°30′29″E
temp.,
°C
wind,
m/s
gust,
m/s
humid.,
%
clouds,
%
prec.,
mm/h
press.,
hPa
HPBL,
m
16 may, sun
sun1623:00+9sw498480 0.0 1014230
02:00+9wsw41273100 0.0 1012315
05:00+9w41569100 0.0 1011632
08:00+10w91784100 3.4 10121387
11:00+10wnw4990100 0.7 1012798
14:00+8nw3688100 2.3 1014456
17:00+7nnw2691100 2.1 1013294
20:00+7w2596100 6.0 1012296
17 may, mon
mon1723:00+6w1198100 5.1 101034
02:00+6nne1298100 10.5 100981
05:00+6w2495100 2.7 1010159
08:00+7nw477080 2.7 1011606
11:00+8wnw4758100 0.0 10111370
14:00+8nnw4562100 0.0 10121340
17:00+9wnw4664100 0.1 10121229
20:00+8w4779100 0.3 1012559
18 may, tue
tue1823:00+6w5982100 0.3 1013409
02:00+5w478499 0.3 1012311
05:00+4w4890100 0.0 1012272
08:00+6wnw4572100 0.1 1012945
11:00+6w3589100 0.4 1011882
14:00+9w4667100 0.8 10091271
17:00+10wnw3463100 0.0 10061068
20:00+6ene0194100 2.3 100547
19 may, wed
wed1923:00+6se1397100 2.4 1003152
02:00+6e2498100 6.1 1000237
05:00+5ene2498100 2.9 1000242
08:00+5ne4696100 4.4 1001459
11:00+4ne3396100 0.6 1003546
14:00+6nne2488100 1.1 1003674
17:00+8wnw2382100 0.3 1003559
20:00+6wsw2391100 0.9 1003118
20 may, thu
thu2023:00+5wnw3696100 0.1 1004196
02:00+4wnw3596100 0.1 1003186
05:00+4nw2393100 0.2 100379
08:00+5n2380100 0.6 1005562
11:00+4nw3387100 1.4 1006419
14:00+6nw4580100 2.0 1006824
17:00+4nnw5795100 1.3 1007784
20:00+2nnw5997100 3.7 1010438